NNS O-14 despin weight

Debris
NORAD ID: 3122 Int'l Des: 1967-092 Owner: NAVAIR Country: US
LEOPOLARONEWEB_TYPE

About NNS O-14 despin weight

Description loading...

Live Position

Loading 3D Globe...

Upcoming Passes

Altitude History

Altitude vs Time

uPlot chart will show altitude changes over time

Two-Line Element Set

1 03122U 67092D 25339.32960400 .00000328 00000-0 65614-3 0 9996
2 03122 89.0632 105.8517 0186211 43.1094 348.1895 13.25904524557331
Epoch: Dec 5, 2025 • Age: 59 hours

Current Status

Altitude 1198.1 km
Velocity 7.25 km/s
Sub-Earth Point -60.13°S, 98.75°E
Type debris

Large Constellations

Loading constellations...